Location: Newark
(48.6461°N, 4.3644°W)
Time: 08:30:48
(UTC+00:00)

Altair - Pass Details

Date: 25 January 2021
Orbit: 1501 x 1682 km, 47.2° (Epoch: 24 February)

Event Time Altitude Azimuth Distance (km) Brightness Sun altitude
Exits shadow 04:39:58 24° 195° (SSW) 2,917 8.7 -32.1°
Maximum altitude 04:45:21 42° 142° (SE) 2,233 8.4 -31.2°
Drops below altitude 10° 04:54:37 10° 76° (ENE) 3,950 10.5 -29.7°
Sets 04:58:00 0° 70° (ENE) 4,938 11.3 -29.1°
